ONEWEB-0286, 49076

Orbit data source: Space-Track

ONEWEB-0286, 49076 is a payload satellite owned by One Web (NAA) (UK) in LEO that was launched on Sat, 21 Aug 2021 UTC via a SOYUZ-2-1B launch vehicle from the Tyuratam Missile And Space Complex (TTMTR). Payload-class satellites include a variety of spacecraft equipped with specific instruments for various scientific and technological missions. These include communications satellites like Starlink; space stations such as the ISS; scientific satellites like the Hubble; Earth observation satellites from companies like Planet Labs, Umbra, and HawkEye 360; GPS; miniature CubeSats for education and research; and military/defense satellites.

Loading next visibility...
Identifier
49076, 2021-075B
Orbit
LEO
Country
Flag of UKUK
Related business
Manufacturer
One Web
Mission
Operational Commercial Communications
Bus & Motor
ARROW, Unknown motor
Mass
148 kg wet, ~140 kg dry
Launch date (UTC)
2021-08-21 (5 years ago)
Launch vehicle
SOYUZ-2-1B
Launch site
Tyuratam Missile And Space Complex (TTMTR)
Object type
Payload
Rocket body
Debris
Shape & HBR
Trap Box + 2 Pan, 6.7 m
Radar Cross Section
3.464 m², Large (>1 m²)

Expand to show TLE details & history
Last TLE update: 8 hours ago

TLE from 8 hours ago
0 ONEWEB-0286
1 49076U 21075B   26130.15247336  .00000438  00000-0  11818-2 0  9990
2 49076  87.8967 358.2436 0001862  89.0277 271.1065 13.12444174229572
Epoch: 2026-05-10T03:39Z
TLE epoch observation values (Epoch: 2026-05-10T03:39:33.698Z)
Latitude
Longitude
75.39354°
Altitude
1,216.582 km
Speed
7.246 km/s
True Right ascension
23h 52m 58s
True Declination
0° 00' 00"
Sunlit
Object was in daylight at epoch
Visualization orbit readout
Latitude
Unknown
Longitude
Unknown
Altitude
Unknown
Speed
Unknown
Apparent Right ascension
Unknown
Apparent Declination
Unknown
Sunlit
N/A
Visualization observer readout
Local Sidereal Time
19:49:00
Azimuth
Unknown
Elevation
Unknown
Doppler factor
Unknown
Orbital elements
Apogee altitude
1,212.248 km
Perigee altitude
1,209.422 km
Semi-major axis
7,588.972 km
Eccentricity
0.00019
Inclination
87.8967°
RAAN
358.2436°
Arg. of periapsis
89.0277°
True anomaly
271.08517°
Mean anomaly
271.1065°
Eccentric anomaly
271.09583°
Mean motion
3.28298 °/min
Orbital period
109.66 mins
BSTAR
0.0011818
Loading maneuver chart data...
Computing Atmospheric mass density...
Loading historical data...
Loading historical data...
Loading historical data...
Loading historical data...
Loading historical data...
Loading historical data...
Loading historical data...

Documentation

Showing up to 5 results
|